Location: Unspecified
(0.0000°N, 0.0000°E)
Time: 00:18:27
(UTC+02:00)

Cosmos 2237 Rocket - Visible Passes

Search period start: 21 April 2014 00:00
Search period end: 01 May 2014 00:00
Orbit: 837 x 849 km, 71.0° (Epoch: 20 April)

Date Brightness Start Highest point End Pass type
(mag) Time Alt. Az. Time Alt. Az. Time Alt. Az.
21 Apr 2.3 21:17:07 10° N 21:22:34 53° ENE 21:24:17 39° SE visible
22 Apr 2.4 21:02:26 10° N 21:07:51 49° ENE 21:11:19 22° SE visible
22 Apr 5.0 22:50:34 10° W 22:51:40 11° WSW 22:52:46 10° WSW visible
23 Apr 2.5 20:47:46 10° N 20:53:08 46° ENE 20:58:27 10° SSE visible
23 Apr 5.0 22:35:10 10° W 22:36:56 11° WSW 22:38:43 10° SW visible
24 Apr 2.6 20:33:06 10° N 20:38:24 43° ENE 20:43:44 10° SE visible
24 Apr 4.9 22:19:58 10° W 22:22:12 12° WSW 22:24:27 10° SW visible
25 Apr 2.7 20:18:26 10° N 20:23:41 41° ENE 20:28:57 10° SE visible
25 Apr 4.9 22:04:52 10° WNW 22:07:29 13° WSW 22:10:06 10° SW visible
26 Apr 4.9 21:49:49 10° WNW 21:52:45 14° WSW 21:55:41 10° SW visible
27 Apr 4.9 21:34:49 10° WNW 21:38:01 15° WSW 21:41:14 10° SW visible
28 Apr 4.9 21:19:51 10° WNW 21:23:17 17° WSW 21:26:45 10° SW visible
29 Apr 4.8 21:04:54 10° WNW 21:08:33 18° WSW 21:12:14 10° SSW visible
30 Apr 4.8 20:49:58 10° WNW 20:53:49 19° WSW 20:57:42 10° SSW visible
